Time,TemperatureF,DewpointF,PressureIn,WindDirection,WindDirectionDegrees,WindSpeedMPH,WindSpeedGustMPH,Humidity,HourlyPrecipIn,Conditions,Clouds,dailyrainin,SolarRadiationWatts/m^2,SoftwareType,DateUTC
2013-02-24 00:01:00,40.6,33.6,30.24,WSW,250,1.0,1.0,76,0.00,,,0.00,0,WeatherCatV1.13B119,2013-02-24 08:01:00,
2013-02-24 00:06:00,40.6,33.6,30.24,WSW,250,1.0,1.0,76,0.00,,,0.00,0,WeatherCatV1.13B119,2013-02-24 08:06:00,
2013-02-24 00:11:00,44.6,37.5,30.24,WSW,246,1.0,1.0,76,0.00,,,0.00,0,WeatherCatV1.13B119,2013-02-24 08:11:00,
2013-02-24 00:16:00,44.4,35.2,30.24,WSW,254,0.0,0.0,70,0.00,,,0.00,0,WeatherCatV1.13B119,2013-02-24 08:16:00,
2013-02-24 00:21:00,40.9,34.3,30.24,WSW,250,0.0,2.0,77,0.00,,,0.00,0,WeatherCatV1.13B119,2013-02-24 08:21:00,
2013-02-24 00:26:00,41.1,34.1,30.24,WSW,250,0.0,3.0,76,0.00,,,0.00,0,WeatherCatV1.13B119,2013-02-24 08:26:00,
2013-02-24 00:31:00,41.3,34.3,30.24,WSW,250,0.0,1.0,76,0.00,,,0.00,0,WeatherCatV1.13B119,2013-02-24 08:31:00,
2013-02-24 00:36:00,41.5,34.2,30.24,WSW,250,0.0,1.0,75,0.00,,,0.00,0,WeatherCatV1.13B119,2013-02-24 08:36:00,
2013-02-24 00:41:00,41.8,34.5,30.24,WSW,250,0.0,1.0,75,0.00,,,0.00,0,WeatherCatV1.13B119,2013-02-24 08:41:00,
2013-02-24 00:46:00,42.0,34.3,30.24,WSW,250,0.0,0.0,74,0.00,,,0.00,0,WeatherCatV1.13B119,2013-02-24 08:46:00,
2013-02-24 00:51:00,42.3,34.3,30.24,WSW,250,0.0,1.0,73,0.00,,,0.00,0,WeatherCatV1.13B119,2013-02-24 08:51:00,
2013-02-24 00:56:00,42.5,34.1,30.24,WSW,250,0.0,1.0,72,0.00,,,0.00,0,WeatherCatV1.13B119,2013-02-24 08:56:00,
2013-02-24 01:01:00,42.7,34.0,30.24,WSW,250,0.0,1.0,71,0.00,,,0.00,0,WeatherCatV1.13B119,2013-02-24 09:01:00,
2013-02-24 01:06:00,42.9,33.8,30.24,WSW,250,0.0,1.0,70,0.00,,,0.00,0,WeatherCatV1.13B119,2013-02-24 09:06:00,
2013-02-24 01:11:00,43.1,33.6,30.24,WSW,250,0.0,0.0,69,0.00,,,0.00,0,WeatherCatV1.13B119,2013-02-24 09:11:00,
2013-02-24 01:16:00,43.2,33.4,30.24,WSW,250,1.0,1.0,68,0.00,,,0.00,0,WeatherCatV1.13B119,2013-02-24 09:16:00,
2013-02-24 01:21:00,43.3,33.1,30.24,WSW,250,0.0,1.0,67,0.00,,,0.00,0,WeatherCatV1.13B119,2013-02-24 09:21:00,
2013-02-24 01:26:00,43.3,33.1,30.24,WSW,250,0.0,1.0,67,0.00,,,0.00,0,WeatherCatV1.13B119,2013-02-24 09:26:00,
2013-02-24 01:31:00,43.2,32.6,30.24,WSW,250,0.0,0.0,66,0.00,,,0.00,0,WeatherCatV1.13B119,2013-02-24 09:31:00,
2013-02-24 01:36:00,43.1,32.5,30.24,WSW,250,0.0,1.0,66,0.00,,,0.00,0,WeatherCatV1.13B119,2013-02-24 09:36:00,
2013-02-24 01:41:00,42.9,32.3,30.24,WSW,250,0.0,0.0,66,0.00,,,0.00,0,WeatherCatV1.13B119,2013-02-24 09:41:00,
2013-02-24 01:46:00,42.8,32.2,30.24,WSW,251,0.0,0.0,66,0.00,,,0.00,0,WeatherCatV1.13B119,2013-02-24 09:46:00,
2013-02-24 01:51:00,42.6,32.0,30.24,WSW,251,0.0,0.0,66,0.00,,,0.00,0,WeatherCatV1.13B119,2013-02-24 09:51:00,
2013-02-24 01:56:00,42.4,31.9,30.24,WSW,251,0.0,1.0,66,0.00,,,0.00,0,WeatherCatV1.13B119,2013-02-24 09:56:00,
2013-02-24 02:01:00,42.2,31.7,30.25,WSW,250,0.0,0.0,66,0.00,,,0.00,0,WeatherCatV1.13B119,2013-02-24 10:01:00,
2013-02-24 02:06:00,41.9,31.8,30.24,WSW,250,0.0,0.0,67,0.00,,,0.00,0,WeatherCatV1.13B119,2013-02-24 10:06:00,
2013-02-24 02:11:00,41.6,31.5,30.24,WSW,251,0.0,0.0,67,0.00,,,0.00,0,WeatherCatV1.13B119,2013-02-24 10:11:00,
2013-02-24 02:16:00,41.4,31.6,30.24,WSW,251,0.0,0.0,68,0.00,,,0.00,0,WeatherCatV1.13B119,2013-02-24 10:16:00,
2013-02-24 02:21:00,41.1,31.4,30.24,WSW,250,0.0,0.0,68,0.00,,,0.00,0,WeatherCatV1.13B119,2013-02-24 10:21:00,
2013-02-24 02:26:00,40.8,31.4,30.25,WSW,251,0.0,0.0,69,0.00,,,0.00,0,WeatherCatV1.13B119,2013-02-24 10:26:00,
2013-02-24 02:31:00,40.5,31.5,30.24,WSW,251,0.0,0.0,70,0.00,,,0.00,0,WeatherCatV1.13B119,2013-02-24 10:31:00,
2013-02-24 02:36:00,40.2,31.2,30.24,WSW,250,0.0,0.0,70,0.00,,,0.00,0,WeatherCatV1.13B119,2013-02-24 10:36:00,
2013-02-24 02:41:00,40.0,31.4,30.24,WSW,250,0.0,0.0,71,0.00,,,0.00,0,WeatherCatV1.13B119,2013-02-24 10:41:00,
2013-02-24 02:46:00,39.8,31.2,30.24,WSW,250,0.0,0.0,71,0.00,,,0.00,0,WeatherCatV1.13B119,2013-02-24 10:46:00,
2013-02-24 02:51:00,39.6,31.0,30.24,WSW,251,0.0,0.0,71,0.00,,,0.00,0,WeatherCatV1.13B119,2013-02-24 10:51:00,
2013-02-24 02:56:00,39.5,31.2,30.24,WSW,250,0.0,1.0,72,0.00,,,0.00,0,WeatherCatV1.13B119,2013-02-24 10:56:00,
2013-02-24 03:01:00,39.3,31.0,30.24,WSW,251,0.0,1.0,72,0.00,,,0.00,0,WeatherCatV1.13B119,2013-02-24 11:01:00,
2013-02-24 03:06:00,39.1,31.2,30.24,WSW,250,0.0,1.0,73,0.00,,,0.00,0,WeatherCatV1.13B119,2013-02-24 11:06:00,
2013-02-24 03:11:00,39.1,31.2,30.23,WSW,250,0.0,1.0,73,0.00,,,0.00,0,WeatherCatV1.13B119,2013-02-24 11:11:00,
2013-02-24 03:16:00,39.0,31.1,30.24,WSW,251,0.0,1.0,73,0.00,,,0.00,0,WeatherCatV1.13B119,2013-02-24 11:16:00,
2013-02-24 03:21:00,38.9,31.0,30.24,WSW,251,0.0,0.0,73,0.00,,,0.00,0,WeatherCatV1.13B119,2013-02-24 11:21:00,
2013-02-24 03:26:00,38.8,30.9,30.24,WSW,251,0.0,0.0,73,0.00,,,0.00,0,WeatherCatV1.13B119,2013-02-24 11:26:00,
2013-02-24 03:31:00,38.8,31.2,30.24,WSW,251,0.0,0.0,74,0.00,,,0.00,0,WeatherCatV1.13B119,2013-02-24 11:31:00,
2013-02-24 03:36:00,38.7,31.1,30.24,WSW,250,0.0,1.0,74,0.00,,,0.00,0,WeatherCatV1.13B119,2013-02-24 11:36:00,
2013-02-24 03:41:00,38.7,31.1,30.24,WSW,250,0.0,0.0,74,0.00,,,0.00,0,WeatherCatV1.13B119,2013-02-24 11:41:00,
2013-02-24 03:46:00,38.6,31.0,30.24,WSW,250,0.0,0.0,74,0.00,,,0.00,0,WeatherCatV1.13B119,2013-02-24 11:46:00,
2013-02-24 03:51:00,38.6,31.0,30.24,WSW,255,0.0,1.0,74,0.00,,,0.00,0,WeatherCatV1.13B119,2013-02-24 11:51:00,
2013-02-24 03:56:00,38.6,31.0,30.24,WSW,255,0.0,1.0,74,0.00,,,0.00,0,WeatherCatV1.13B119,2013-02-24 11:56:00,
2013-02-24 04:01:00,38.6,31.0,30.24,WSW,254,0.0,1.0,74,0.00,,,0.00,0,WeatherCatV1.13B119,2013-02-24 12:01:00,
2013-02-24 04:06:00,38.7,31.1,30.24,WSW,254,0.0,1.0,74,0.00,,,0.00,0,WeatherCatV1.13B119,2013-02-24 12:06:00,
2013-02-24 04:11:00,39.0,31.4,30.24,NNE,30,0.0,0.0,74,0.00,,,0.00,0,WeatherCatV1.13B119,2013-02-24 12:11:00,
2013-02-24 04:16:00,39.2,31.6,30.24,NNE,30,0.0,1.0,74,0.00,,,0.00,0,WeatherCatV1.13B119,2013-02-24 12:16:00,
2013-02-24 04:20:00,39.4,31.5,30.25,NNE,30,0.0,0.0,73,0.00,,,0.00,0,WeatherCatV1.13B119,2013-02-24 12:20:00,
2013-02-24 04:25:00,39.6,31.3,30.25,NNE,30,0.0,0.0,72,0.00,,,0.00,0,WeatherCatV1.13B119,2013-02-24 12:25:00,
2013-02-24 04:30:00,39.8,31.5,30.25,NNE,30,0.0,0.0,72,0.00,,,0.00,0,WeatherCatV1.13B119,2013-02-24 12:30:00,
2013-02-24 04:35:00,40.0,31.4,30.25,NNE,30,0.0,1.0,71,0.00,,,0.00,0,WeatherCatV1.13B119,2013-02-24 12:35:00,
2013-02-24 04:40:00,40.1,31.5,30.25,NNE,30,0.0,0.0,71,0.00,,,0.00,0,WeatherCatV1.13B119,2013-02-24 12:40:00,
2013-02-24 04:45:00,40.2,31.2,30.25,NNE,30,0.0,1.0,70,0.00,,,0.00,0,WeatherCatV1.13B119,2013-02-24 12:45:00,
2013-02-24 04:50:00,40.2,30.9,30.25,NNE,30,0.0,0.0,69,0.00,,,0.00,0,WeatherCatV1.13B119,2013-02-24 12:50:00,
2013-02-24 04:55:00,40.3,31.0,30.25,NNE,30,0.0,0.0,69,0.00,,,0.00,0,WeatherCatV1.13B119,2013-02-24 12:55:00,
2013-02-24 05:00:00,40.2,30.9,30.25,NNE,30,0.0,0.0,69,0.00,,,0.00,0,WeatherCatV1.13B119,2013-02-24 13:00:00,
2013-02-24 05:05:00,40.2,30.5,30.25,NNE,30,0.0,0.0,68,0.00,,,0.00,0,WeatherCatV1.13B119,2013-02-24 13:05:00,
2013-02-24 05:10:00,40.1,30.8,30.25,NNE,30,0.0,0.0,69,0.00,,,0.00,0,WeatherCatV1.13B119,2013-02-24 13:10:00,
2013-02-24 05:15:00,40.0,30.3,30.25,NNE,30,0.0,0.0,68,0.00,,,0.00,0,WeatherCatV1.13B119,2013-02-24 13:15:00,
2013-02-24 05:20:00,39.8,30.5,30.25,NNE,30,0.0,0.0,69,0.00,,,0.00,0,WeatherCatV1.13B119,2013-02-24 13:20:00,
2013-02-24 05:25:00,39.7,30.4,30.25,NNE,30,0.0,0.0,69,0.00,,,0.00,0,WeatherCatV1.13B119,2013-02-24 13:25:00,
2013-02-24 05:30:00,39.6,30.3,30.25,NNE,30,0.0,0.0,69,0.00,,,0.00,0,WeatherCatV1.13B119,2013-02-24 13:30:00,
2013-02-24 05:35:00,39.4,30.1,30.25,NNE,30,0.0,0.0,69,0.00,,,0.00,0,WeatherCatV1.13B119,2013-02-24 13:35:00,
2013-02-24 05:40:00,39.2,30.3,30.25,NNE,30,0.0,0.0,70,0.00,,,0.00,0,WeatherCatV1.13B119,2013-02-24 13:40:00,
2013-02-24 05:45:00,39.1,30.2,30.25,NNE,30,0.0,0.0,70,0.00,,,0.00,0,WeatherCatV1.13B119,2013-02-24 13:45:00,
2013-02-24 05:50:00,38.9,30.0,30.25,NNE,30,0.0,0.0,70,0.00,,,0.00,0,WeatherCatV1.13B119,2013-02-24 13:50:00,
2013-02-24 05:55:00,38.7,30.1,30.26,NNE,30,1.0,1.0,71,0.00,,,0.00,0,WeatherCatV1.13B119,2013-02-24 13:55:00,
2013-02-24 06:00:00,38.5,29.9,30.26,NNE,30,0.0,0.0,71,0.00,,,0.00,0,WeatherCatV1.13B119,2013-02-24 14:00:00,
2013-02-24 06:05:00,38.4,29.8,30.26,NNE,30,0.0,1.0,71,0.00,,,0.00,0,WeatherCatV1.13B119,2013-02-24 14:05:00,
2013-02-24 06:10:00,38.2,29.6,30.26,NNE,30,0.0,0.0,71,0.00,,,0.00,0,WeatherCatV1.13B119,2013-02-24 14:10:00,
2013-02-24 06:15:00,38.0,29.8,30.26,NNE,30,0.0,0.0,72,0.00,,,0.00,0,WeatherCatV1.13B119,2013-02-24 14:15:00,
2013-02-24 06:20:00,37.9,29.7,30.26,NNE,30,0.0,0.0,72,0.00,,,0.00,0,WeatherCatV1.13B119,2013-02-24 14:20:00,
2013-02-24 06:25:00,37.7,29.5,30.26,NNE,30,0.0,1.0,72,0.00,,,0.00,0,WeatherCatV1.13B119,2013-02-24 14:25:00,
2013-02-24 06:30:00,37.5,29.3,30.27,NNE,30,0.0,0.0,72,0.00,,,0.00,0,WeatherCatV1.13B119,2013-02-24 14:30:00,
2013-02-24 06:35:00,37.3,29.1,30.26,NNE,30,0.0,0.0,72,0.00,,,0.00,0,WeatherCatV1.13B119,2013-02-24 14:35:00,
2013-02-24 06:40:00,37.1,29.3,30.26,NNE,30,0.0,0.0,73,0.00,,,0.00,0,WeatherCatV1.13B119,2013-02-24 14:40:00,
2013-02-24 06:45:00,36.9,29.1,30.26,NNE,30,0.0,0.0,73,0.00,,,0.00,0,WeatherCatV1.13B119,2013-02-24 14:45:00,
2013-02-24 06:50:00,36.8,29.0,30.27,NNE,30,0.0,0.0,73,0.00,,,0.00,5,WeatherCatV1.13B119,2013-02-24 14:50:00,
2013-02-24 06:55:00,36.6,29.1,30.27,NNE,30,0.0,0.0,74,0.00,,,0.00,7,WeatherCatV1.13B119,2013-02-24 14:55:00,
2013-02-24 07:00:00,36.5,29.0,30.27,NNE,30,0.0,0.0,74,0.00,,,0.00,11,WeatherCatV1.13B119,2013-02-24 15:00:00,
2013-02-24 07:05:00,36.4,28.9,30.27,NNE,30,0.0,0.0,74,0.00,,,0.00,12,WeatherCatV1.13B119,2013-02-24 15:05:00,
2013-02-24 07:10:00,36.2,29.1,30.27,NNE,30,0.0,0.0,75,0.00,,,0.00,16,WeatherCatV1.13B119,2013-02-24 15:10:00,
2013-02-24 07:15:00,36.2,29.1,30.27,NNE,30,0.0,0.0,75,0.00,,,0.00,18,WeatherCatV1.13B119,2013-02-24 15:15:00,
2013-02-24 07:20:00,36.1,29.0,30.27,NNE,30,0.0,0.0,75,0.00,,,0.00,21,WeatherCatV1.13B119,2013-02-24 15:20:00,
2013-02-24 07:25:00,36.0,28.9,30.27,NNE,30,0.0,0.0,75,0.00,,,0.00,25,WeatherCatV1.13B119,2013-02-24 15:25:00,
2013-02-24 07:30:00,36.0,29.2,30.27,NNE,30,0.0,0.0,76,0.00,,,0.00,28,WeatherCatV1.13B119,2013-02-24 15:30:00,
2013-02-24 07:35:00,36.0,29.2,30.27,NNE,30,0.0,0.0,76,0.00,,,0.00,30,WeatherCatV1.13B119,2013-02-24 15:35:00,
2013-02-24 07:40:00,36.0,29.2,30.27,NNE,30,0.0,0.0,76,0.00,,,0.00,33,WeatherCatV1.13B119,2013-02-24 15:40:00,
2013-02-24 07:45:00,36.0,29.5,30.27,NNE,30,0.0,0.0,77,0.00,,,0.00,35,WeatherCatV1.13B119,2013-02-24 15:45:00,
2013-02-24 07:50:00,36.1,29.6,30.27,NNE,30,0.0,0.0,77,0.00,,,0.00,135,WeatherCatV1.13B119,2013-02-24 15:50:00,
2013-02-24 07:55:00,36.2,29.7,30.28,NNE,30,0.0,0.0,77,0.00,,,0.00,156,WeatherCatV1.13B119,2013-02-24 15:55:00,
2013-02-24 08:00:00,36.3,29.8,30.27,NNE,30,0.0,0.0,77,0.00,,,0.00,172,WeatherCatV1.13B119,2013-02-24 16:00:00,
2013-02-24 08:05:00,36.5,30.3,30.28,NNE,30,0.0,0.0,78,0.00,,,0.00,183,WeatherCatV1.13B119,2013-02-24 16:05:00,
2013-02-24 08:10:00,36.7,30.5,30.28,NNE,30,0.0,0.0,78,0.00,,,0.00,211,WeatherCatV1.13B119,2013-02-24 16:10:00,
2013-02-24 08:15:00,37.0,31.1,30.28,NNE,30,0.0,1.0,79,0.00,,,0.00,211,WeatherCatV1.13B119,2013-02-24 16:15:00,
2013-02-24 08:20:00,37.4,31.5,30.28,NNE,30,0.0,1.0,79,0.00,,,0.00,204,WeatherCatV1.13B119,2013-02-24 16:20:00,
2013-02-24 08:25:00,38.1,32.5,30.28,NNE,30,0.0,1.0,80,0.00,,,0.00,230,WeatherCatV1.13B119,2013-02-24 16:25:00,
2013-02-24 08:30:00,43.8,35.4,30.28,NNE,30,0.0,0.0,72,0.00,,,0.00,251,WeatherCatV1.13B119,2013-02-24 16:30:00,
2013-02-24 08:35:00,46.1,34.6,30.29,NNE,30,0.0,1.0,64,0.00,,,0.00,294,WeatherCatV1.13B119,2013-02-24 16:35:00,
2013-02-24 08:40:00,47.3,34.5,30.29,NNE,19,0.0,1.0,61,0.00,,,0.00,283,WeatherCatV1.13B119,2013-02-24 16:40:00,
2013-02-24 08:45:00,48.3,33.3,30.29,NNE,19,0.0,1.0,56,0.00,,,0.00,267,WeatherCatV1.13B119,2013-02-24 16:45:00,
2013-02-24 08:50:00,49.0,32.6,30.29,NNE,19,0.0,1.0,53,0.00,,,0.00,309,WeatherCatV1.13B119,2013-02-24 16:50:00,
2013-02-24 08:55:00,49.9,32.5,30.29,NNE,18,0.0,2.0,51,0.00,,,0.00,353,WeatherCatV1.13B119,2013-02-24 16:55:00,
2013-02-24 09:00:00,50.4,30.9,30.29,NNE,18,0.0,0.0,47,0.00,,,0.00,366,WeatherCatV1.13B119,2013-02-24 17:00:00,
2013-02-24 09:05:00,51.2,33.2,30.29,NNE,18,0.0,1.0,50,0.00,,,0.00,385,WeatherCatV1.13B119,2013-02-24 17:05:00,
2013-02-24 09:10:00,51.5,30.3,30.29,NNE,18,1.0,1.0,44,0.00,,,0.00,336,WeatherCatV1.13B119,2013-02-24 17:10:00,
2013-02-24 09:15:00,51.5,31.9,30.29,NNE,18,0.0,0.0,47,0.00,,,0.00,380,WeatherCatV1.13B119,2013-02-24 17:15:00,
2013-02-24 09:20:00,51.5,29.2,30.29,NNE,18,0.0,1.0,42,0.00,,,0.00,403,WeatherCatV1.13B119,2013-02-24 17:20:00,
2013-02-24 09:25:00,52.6,29.6,30.29,NNE,18,1.0,1.0,41,0.00,,,0.00,432,WeatherCatV1.13B119,2013-02-24 17:25:00,
2013-02-24 09:30:00,52.7,30.3,30.29,NNE,18,0.0,1.0,42,0.00,,,0.00,443,WeatherCatV1.13B119,2013-02-24 17:30:00,
2013-02-24 09:35:00,53.2,31.3,30.29,NNE,18,0.0,1.0,43,0.00,,,0.00,454,WeatherCatV1.13B119,2013-02-24 17:35:00,
2013-02-24 09:40:00,54.0,32.0,30.29,NNE,16,1.0,2.0,43,0.00,,,0.00,464,WeatherCatV1.13B119,2013-02-24 17:40:00,
2013-02-24 09:45:00,55.0,32.3,30.29,NNE,15,1.0,2.0,42,0.00,,,0.00,476,WeatherCatV1.13B119,2013-02-24 17:45:00,
2013-02-24 09:50:00,54.4,29.3,30.29,NNE,15,0.0,1.0,38,0.00,,,0.00,489,WeatherCatV1.13B119,2013-02-24 17:50:00,
2013-02-24 09:55:00,54.7,27.6,30.29,ENE,71,0.0,3.0,35,0.00,,,0.00,490,WeatherCatV1.13B119,2013-02-24 17:55:00,
2013-02-24 10:00:00,55.9,30.0,30.29,ENE,68,0.0,2.0,37,0.00,,,0.00,506,WeatherCatV1.13B119,2013-02-24 18:00:00,
2013-02-24 10:05:00,55.0,26.4,30.28,ENE,57,0.0,6.0,33,0.00,,,0.00,517,WeatherCatV1.13B119,2013-02-24 18:05:00,
2013-02-24 10:10:00,55.3,26.7,30.28,NE,35,2.0,4.0,33,0.00,,,0.00,531,WeatherCatV1.13B119,2013-02-24 18:10:00,
2013-02-24 10:15:00,54.3,25.1,30.28,NNE,15,0.0,3.0,32,0.00,,,0.00,540,WeatherCatV1.13B119,2013-02-24 18:15:00,
2013-02-24 10:20:00,55.4,26.8,30.28,NNE,19,0.0,1.0,33,0.00,,,0.00,545,WeatherCatV1.13B119,2013-02-24 18:20:00,
2013-02-24 10:25:00,57.4,27.0,30.28,ENE,63,0.0,1.0,31,0.00,,,0.00,555,WeatherCatV1.13B119,2013-02-24 18:25:00,
2013-02-24 10:30:00,56.6,26.3,30.27,NNE,18,4.0,4.0,31,0.00,,,0.00,564,WeatherCatV1.13B119,2013-02-24 18:30:00,
2013-02-24 10:35:00,56.3,26.1,30.27,ENE,58,0.0,3.0,31,0.00,,,0.00,577,WeatherCatV1.13B119,2013-02-24 18:35:00,
2013-02-24 10:40:00,57.7,26.5,30.27,NE,53,0.0,3.0,30,0.00,,,0.00,587,WeatherCatV1.13B119,2013-02-24 18:40:00,
2013-02-24 10:45:00,56.9,27.4,30.27,ENE,65,0.0,1.0,32,0.00,,,0.00,594,WeatherCatV1.13B119,2013-02-24 18:45:00,
2013-02-24 10:50:00,57.4,26.2,30.27,NE,45,0.0,3.0,30,0.00,,,0.00,603,WeatherCatV1.13B119,2013-02-24 18:50:00,
2013-02-24 10:55:00,56.6,27.1,30.27,NE,44,0.0,3.0,32,0.00,,,0.00,606,WeatherCatV1.13B119,2013-02-24 18:55:00,
2013-02-24 11:00:00,58.4,28.7,30.27,NNE,26,0.0,4.0,32,0.00,,,0.00,619,WeatherCatV1.13B119,2013-02-24 19:00:00,
2013-02-24 11:05:00,59.0,26.8,30.27,East,87,1.0,3.0,29,0.00,,,0.00,624,WeatherCatV1.13B119,2013-02-24 19:05:00,
2013-02-24 11:10:00,58.2,26.9,30.27,NNE,30,0.0,2.0,30,0.00,,,0.00,628,WeatherCatV1.13B119,2013-02-24 19:10:00,
2013-02-24 11:15:00,58.0,27.5,30.26,NE,53,1.0,1.0,31,0.00,,,0.00,633,WeatherCatV1.13B119,2013-02-24 19:15:00,
2013-02-24 11:20:00,58.5,26.4,30.26,NE,37,1.0,3.0,29,0.00,,,0.00,638,WeatherCatV1.13B119,2013-02-24 19:20:00,
2013-02-24 11:25:00,57.9,26.7,30.27,NE,36,2.0,4.0,30,0.00,,,0.00,642,WeatherCatV1.13B119,2013-02-24 19:25:00,
2013-02-24 11:30:00,58.7,26.5,30.26,North,0,1.0,3.0,29,0.00,,,0.00,649,WeatherCatV1.13B119,2013-02-24 19:30:00,
2013-02-24 11:34:00,59.2,27.8,30.26,North,0,3.0,3.0,30,0.00,,,0.00,657,WeatherCatV1.13B119,2013-02-24 19:34:00,
2013-02-24 11:39:00,58.9,26.7,30.26,NNE,13,0.0,1.0,29,0.00,,,0.00,656,WeatherCatV1.13B119,2013-02-24 19:39:00,
2013-02-24 11:44:00,59.0,26.8,30.26,SW,217,0.0,3.0,29,0.00,,,0.00,659,WeatherCatV1.13B119,2013-02-24 19:44:00,
2013-02-24 11:49:00,60.2,28.7,30.26,NNE,26,0.0,1.0,30,0.00,,,0.00,621,WeatherCatV1.13B119,2013-02-24 19:49:00,
2013-02-24 11:54:00,59.9,28.4,30.26,North,10,3.0,3.0,30,0.00,,,0.00,606,WeatherCatV1.13B119,2013-02-24 19:54:00,
2013-02-24 11:59:00,60.2,28.7,30.26,ENE,60,1.0,1.0,30,0.00,,,0.00,633,WeatherCatV1.13B119,2013-02-24 19:59:00,
2013-02-24 12:04:00,59.8,28.3,30.26,ENE,65,1.0,2.0,30,0.00,,,0.00,663,WeatherCatV1.13B119,2013-02-24 20:04:00,
2013-02-24 12:09:00,59.6,27.3,30.25,ENE,76,0.0,4.0,29,0.00,,,0.00,675,WeatherCatV1.13B119,2013-02-24 20:09:00,
2013-02-24 12:14:00,60.2,27.8,30.25,NE,55,0.0,3.0,29,0.00,,,0.00,666,WeatherCatV1.13B119,2013-02-24 20:14:00,
2013-02-24 12:19:00,59.9,27.6,30.25,North,9,0.0,5.0,29,0.00,,,0.00,666,WeatherCatV1.13B119,2013-02-24 20:19:00,
2013-02-24 12:24:00,61.0,28.5,30.24,NE,49,0.0,1.0,29,0.00,,,0.00,671,WeatherCatV1.13B119,2013-02-24 20:24:00,
2013-02-24 12:29:00,61.2,28.7,30.24,NNE,33,1.0,3.0,29,0.00,,,0.00,671,WeatherCatV1.13B119,2013-02-24 20:29:00,
2013-02-24 12:34:00,62.0,28.5,30.24,NNE,31,2.0,2.0,28,0.00,,,0.00,671,WeatherCatV1.13B119,2013-02-24 20:34:00,
2013-02-24 12:39:00,61.7,28.3,30.23,ENE,62,0.0,3.0,28,0.00,,,0.00,671,WeatherCatV1.13B119,2013-02-24 20:39:00,
2013-02-24 12:44:00,61.3,28.8,30.23,East,98,0.0,4.0,29,0.00,,,0.00,670,WeatherCatV1.13B119,2013-02-24 20:44:00,
2013-02-24 12:49:00,60.9,26.7,30.23,North,350,2.0,5.0,27,0.00,,,0.00,555,WeatherCatV1.13B119,2013-02-24 20:49:00,
2013-02-24 12:54:00,62.0,29.4,30.23,WNW,301,1.0,1.0,29,0.00,,,0.00,496,WeatherCatV1.13B119,2013-02-24 20:54:00,
2013-02-24 12:59:00,60.7,28.3,30.23,NNW,346,0.0,2.0,29,0.00,,,0.00,547,WeatherCatV1.13B119,2013-02-24 20:59:00,
2013-02-24 13:04:00,61.5,28.1,30.22,North,355,1.0,4.0,28,0.00,,,0.00,610,WeatherCatV1.13B119,2013-02-24 21:04:00,
2013-02-24 13:09:00,61.9,29.3,30.22,NNE,21,2.0,2.0,29,0.00,,,0.00,587,WeatherCatV1.13B119,2013-02-24 21:09:00,
2013-02-24 13:14:00,62.7,30.0,30.22,NW,314,1.0,3.0,29,0.00,,,0.00,594,WeatherCatV1.13B119,2013-02-24 21:14:00,
2013-02-24 13:19:00,62.0,27.6,30.22,NNE,32,1.0,2.0,27,0.00,,,0.00,517,WeatherCatV1.13B119,2013-02-24 21:19:00,
2013-02-24 13:24:00,62.4,28.9,30.22,NNW,329,0.0,3.0,28,0.00,,,0.00,564,WeatherCatV1.13B119,2013-02-24 21:24:00,
2013-02-24 13:29:00,61.8,28.4,30.22,NNW,334,0.0,1.0,28,0.00,,,0.00,640,WeatherCatV1.13B119,2013-02-24 21:29:00,
2013-02-24 13:34:00,62.0,30.2,30.22,West,269,1.0,2.0,30,0.00,,,0.00,580,WeatherCatV1.13B119,2013-02-24 21:34:00,
2013-02-24 13:39:00,62.3,28.8,30.22,SW,226,0.0,5.0,28,0.00,,,0.00,592,WeatherCatV1.13B119,2013-02-24 21:39:00,
2013-02-24 13:44:00,62.5,29.0,30.22,North,355,1.0,4.0,28,0.00,,,0.00,279,WeatherCatV1.13B119,2013-02-24 21:44:00,
2013-02-24 13:49:00,62.4,28.9,30.21,NE,54,4.0,5.0,28,0.00,,,0.00,156,WeatherCatV1.13B119,2013-02-24 21:49:00,
2013-02-24 13:54:00,61.8,29.2,30.21,North,5,1.0,5.0,29,0.00,,,0.00,599,WeatherCatV1.13B119,2013-02-24 21:54:00,
2013-02-24 13:59:00,62.1,28.6,30.21,North,355,1.0,2.0,28,0.00,,,0.00,592,WeatherCatV1.13B119,2013-02-24 21:59:00,
2013-02-24 14:04:00,62.2,29.6,30.21,North,349,0.0,1.0,29,0.00,,,0.00,431,WeatherCatV1.13B119,2013-02-24 22:04:00,
2013-02-24 14:09:00,61.5,27.2,30.21,NNE,18,0.0,7.0,27,0.00,,,0.00,494,WeatherCatV1.13B119,2013-02-24 22:09:00,
2013-02-24 14:14:00,61.9,28.4,30.21,ENE,64,0.0,3.0,28,0.00,,,0.00,548,WeatherCatV1.13B119,2013-02-24 22:14:00,
2013-02-24 14:19:00,61.4,26.2,30.20,NE,48,1.0,5.0,26,0.00,,,0.00,478,WeatherCatV1.13B119,2013-02-24 22:19:00,
2013-02-24 14:24:00,62.5,28.1,30.20,NNE,21,0.0,1.0,27,0.00,,,0.00,468,WeatherCatV1.13B119,2013-02-24 22:24:00,
2013-02-24 14:29:00,61.8,27.5,30.20,NNE,22,0.0,5.0,27,0.00,,,0.00,95,WeatherCatV1.13B119,2013-02-24 22:29:00,
2013-02-24 14:34:00,62.8,29.2,30.20,NNE,22,0.0,2.0,28,0.00,,,0.00,40,WeatherCatV1.13B119,2013-02-24 22:34:00,
2013-02-24 14:39:00,63.0,29.4,30.20,North,10,1.0,4.0,28,0.00,,,0.00,40,WeatherCatV1.13B119,2013-02-24 22:39:00,
2013-02-24 14:44:00,63.4,29.7,30.20,North,9,0.0,1.0,28,0.00,,,0.00,40,WeatherCatV1.13B119,2013-02-24 22:44:00,
2013-02-24 14:49:00,63.6,29.9,30.20,East,87,0.0,3.0,28,0.00,,,0.00,39,WeatherCatV1.13B119,2013-02-24 22:49:00,
2013-02-24 14:54:00,63.9,31.0,30.20,East,87,0.0,1.0,29,0.00,,,0.00,373,WeatherCatV1.13B119,2013-02-24 22:54:00,
2013-02-24 14:59:00,63.2,28.7,30.20,NNE,23,1.0,7.0,27,0.00,,,0.00,441,WeatherCatV1.13B119,2013-02-24 22:59:00,
2013-02-24 15:04:00,62.2,28.7,30.20,North,0,2.0,2.0,28,0.00,,,0.00,461,WeatherCatV1.13B119,2013-02-24 23:04:00,
2013-02-24 15:09:00,62.3,29.6,30.20,ENE,59,1.0,1.0,29,0.00,,,0.00,401,WeatherCatV1.13B119,2013-02-24 23:09:00,
2013-02-24 15:14:00,62.4,28.9,30.20,North,11,0.0,1.0,28,0.00,,,0.00,427,WeatherCatV1.13B119,2013-02-24 23:14:00,
2013-02-24 15:19:00,61.8,29.2,30.20,NE,50,0.0,0.0,29,0.00,,,0.00,413,WeatherCatV1.13B119,2013-02-24 23:19:00,
2013-02-24 15:24:00,62.1,28.6,30.20,WSW,255,0.0,1.0,28,0.00,,,0.00,408,WeatherCatV1.13B119,2013-02-24 23:24:00,
2013-02-24 15:29:00,62.5,29.0,30.19,NNW,345,0.0,3.0,28,0.00,,,0.00,394,WeatherCatV1.13B119,2013-02-24 23:29:00,
2013-02-24 15:34:00,62.5,29.0,30.19,North,0,0.0,2.0,28,0.00,,,0.00,376,WeatherCatV1.13B119,2013-02-24 23:34:00,
2013-02-24 15:39:00,61.9,26.6,30.19,NE,46,1.0,2.0,26,0.00,,,0.00,33,WeatherCatV1.13B119,2013-02-24 23:39:00,
2013-02-24 15:44:00,62.0,27.6,30.20,East,84,0.0,1.0,27,0.00,,,0.00,54,WeatherCatV1.13B119,2013-02-24 23:44:00,
2013-02-24 15:49:00,61.8,28.4,30.20,SSW,201,0.0,3.0,28,0.00,,,0.00,47,WeatherCatV1.13B119,2013-02-24 23:49:00,
2013-02-24 15:54:00,61.7,30.0,30.19,North,355,5.0,6.0,30,0.00,,,0.00,32,WeatherCatV1.13B119,2013-02-24 23:54:00,
2013-02-24 15:59:00,61.2,29.5,30.19,NNE,24,0.0,1.0,30,0.00,,,0.00,33,WeatherCatV1.13B119,2013-02-24 23:59:00,
2013-02-24 16:04:00,61.3,29.6,30.19,SW,219,1.0,7.0,30,0.00,,,0.00,35,WeatherCatV1.13B119,2013-02-25 00:04:00,
2013-02-24 16:09:00,61.4,29.7,30.19,North,0,2.0,3.0,30,0.00,,,0.00,32,WeatherCatV1.13B119,2013-02-25 00:09:00,
2013-02-24 16:14:00,61.3,29.6,30.19,North,355,0.0,1.0,30,0.00,,,0.00,28,WeatherCatV1.13B119,2013-02-25 00:14:00,
2013-02-24 16:19:00,61.3,29.6,30.19,WSW,251,0.0,0.0,30,0.00,,,0.00,28,WeatherCatV1.13B119,2013-02-25 00:19:00,
2013-02-24 16:24:00,61.1,28.6,30.19,West,275,0.0,3.0,29,0.00,,,0.00,26,WeatherCatV1.13B119,2013-02-25 00:24:00,
2013-02-24 16:29:00,61.0,27.7,30.19,WSW,252,1.0,2.0,28,0.00,,,0.00,26,WeatherCatV1.13B119,2013-02-25 00:29:00,
2013-02-24 16:34:00,60.9,26.7,30.19,North,0,1.0,3.0,27,0.00,,,0.00,25,WeatherCatV1.13B119,2013-02-25 00:34:00,
2013-02-24 16:39:00,60.8,27.5,30.19,North,0,0.0,4.0,28,0.00,,,0.00,25,WeatherCatV1.13B119,2013-02-25 00:39:00,
2013-02-24 16:44:00,60.7,28.3,30.19,North,5,0.0,1.0,29,0.00,,,0.00,25,WeatherCatV1.13B119,2013-02-25 00:44:00,
2013-02-24 16:49:00,60.6,29.0,30.19,North,5,1.0,4.0,30,0.00,,,0.00,23,WeatherCatV1.13B119,2013-02-25 00:49:00,
2013-02-24 16:54:00,60.5,27.2,30.19,NNE,17,0.0,5.0,28,0.00,,,0.00,23,WeatherCatV1.13B119,2013-02-25 00:54:00,
2013-02-24 16:59:00,60.4,28.8,30.19,NNE,16,0.0,2.0,30,0.00,,,0.00,21,WeatherCatV1.13B119,2013-02-25 00:59:00,
2013-02-24 17:04:00,60.3,29.5,30.19,NNE,16,0.0,1.0,31,0.00,,,0.00,19,WeatherCatV1.13B119,2013-02-25 01:04:00,
2013-02-24 17:09:00,60.0,30.8,30.19,West,260,0.0,0.0,33,0.00,,,0.00,19,WeatherCatV1.13B119,2013-02-25 01:09:00,
2013-02-24 17:14:00,59.8,30.6,30.19,West,260,0.0,1.0,33,0.00,,,0.00,18,WeatherCatV1.13B119,2013-02-25 01:14:00,
2013-02-24 17:19:00,59.6,32.6,30.19,North,5,1.0,1.0,36,0.00,,,0.00,18,WeatherCatV1.13B119,2013-02-25 01:19:00,
2013-02-24 17:24:00,59.5,32.5,30.19,North,5,0.0,0.0,36,0.00,,,0.00,16,WeatherCatV1.13B119,2013-02-25 01:24:00,
2013-02-24 17:29:00,59.3,32.4,30.19,North,0,0.0,2.0,36,0.00,,,0.00,14,WeatherCatV1.13B119,2013-02-25 01:29:00,
2013-02-24 17:34:00,59.1,32.2,30.19,North,5,0.0,0.0,36,0.00,,,0.00,12,WeatherCatV1.13B119,2013-02-25 01:34:00,
2013-02-24 17:39:00,59.0,32.1,30.20,North,5,0.0,0.0,36,0.00,,,0.00,11,WeatherCatV1.13B119,2013-02-25 01:39:00,
2013-02-24 17:44:00,59.0,32.8,30.20,North,0,0.0,0.0,37,0.00,,,0.00,9,WeatherCatV1.13B119,2013-02-25 01:44:00,
2013-02-24 17:49:00,58.9,32.7,30.20,North,0,0.0,0.0,37,0.00,,,0.00,7,WeatherCatV1.13B119,2013-02-25 01:49:00,
2013-02-24 17:54:00,58.6,32.4,30.19,North,0,0.0,0.0,37,0.00,,,0.00,5,WeatherCatV1.13B119,2013-02-25 01:54:00,
2013-02-24 17:59:00,58.3,32.8,30.19,North,5,0.0,0.0,38,0.00,,,0.00,0,WeatherCatV1.13B119,2013-02-25 01:59:00,
2013-02-24 18:04:00,57.9,32.5,30.19,North,5,0.0,0.0,38,0.00,,,0.00,0,WeatherCatV1.13B119,2013-02-25 02:04:00,
2013-02-24 18:09:00,57.5,32.1,30.19,North,5,0.0,0.0,38,0.00,,,0.00,0,WeatherCatV1.13B119,2013-02-25 02:09:00,
2013-02-24 18:14:00,57.1,31.7,30.19,North,5,0.0,0.0,38,0.00,,,0.00,0,WeatherCatV1.13B119,2013-02-25 02:14:00,
2013-02-24 18:19:00,56.7,30.7,30.19,North,0,0.0,0.0,37,0.00,,,0.00,0,WeatherCatV1.13B119,2013-02-25 02:19:00,
2013-02-24 18:24:00,56.2,30.3,30.20,North,0,0.0,0.0,37,0.00,,,0.00,0,WeatherCatV1.13B119,2013-02-25 02:24:00,
2013-02-24 18:29:00,55.7,30.5,30.20,North,5,0.0,0.0,38,0.00,,,0.00,0,WeatherCatV1.13B119,2013-02-25 02:29:00,
2013-02-24 18:34:00,55.1,30.6,30.20,North,5,0.0,0.0,39,0.00,,,0.00,0,WeatherCatV1.13B119,2013-02-25 02:34:00,
2013-02-24 18:39:00,54.6,31.4,30.20,North,5,0.0,0.0,41,0.00,,,0.00,0,WeatherCatV1.13B119,2013-02-25 02:39:00,
2013-02-24 18:44:00,54.1,31.5,30.20,North,0,0.0,0.0,42,0.00,,,0.00,0,WeatherCatV1.13B119,2013-02-25 02:44:00,
2013-02-24 18:49:00,53.7,31.2,30.20,North,0,0.0,0.0,42,0.00,,,0.00,0,WeatherCatV1.13B119,2013-02-25 02:49:00,
2013-02-24 18:54:00,53.3,31.4,30.21,North,5,0.0,0.0,43,0.00,,,0.00,0,WeatherCatV1.13B119,2013-02-25 02:54:00,
2013-02-24 18:59:00,52.8,32.1,30.21,North,5,0.0,0.0,45,0.00,,,0.00,0,WeatherCatV1.13B119,2013-02-25 02:59:00,
2013-02-24 19:04:00,52.2,32.6,30.21,North,5,0.0,0.0,47,0.00,,,0.00,0,WeatherCatV1.13B119,2013-02-25 03:04:00,
2013-02-24 19:09:00,51.6,32.6,30.21,North,0,0.0,0.0,48,0.00,,,0.00,0,WeatherCatV1.13B119,2013-02-25 03:09:00,
2013-02-24 19:14:00,51.2,32.7,30.21,North,5,0.0,0.0,49,0.00,,,0.00,0,WeatherCatV1.13B119,2013-02-25 03:14:00,
2013-02-24 19:19:00,50.8,32.8,30.21,North,5,0.0,0.0,50,0.00,,,0.00,0,WeatherCatV1.13B119,2013-02-25 03:19:00,
2013-02-24 19:24:00,50.4,33.0,30.21,North,5,0.0,0.0,51,0.00,,,0.00,0,WeatherCatV1.13B119,2013-02-25 03:24:00,
2013-02-24 19:28:00,50.0,32.6,30.22,North,5,0.0,0.0,51,0.00,,,0.00,0,WeatherCatV1.13B119,2013-02-25 03:28:00,
2013-02-24 19:33:00,49.7,32.8,30.22,North,5,0.0,0.0,52,0.00,,,0.00,0,WeatherCatV1.13B119,2013-02-25 03:33:00,
2013-02-24 19:38:00,49.4,32.5,30.22,North,5,0.0,0.0,52,0.00,,,0.00,0,WeatherCatV1.13B119,2013-02-25 03:38:00,
2013-02-24 19:43:00,49.0,32.6,30.22,North,5,0.0,0.0,53,0.00,,,0.00,0,WeatherCatV1.13B119,2013-02-25 03:43:00,
2013-02-24 19:48:00,48.7,32.3,30.22,North,5,0.0,0.0,53,0.00,,,0.00,0,WeatherCatV1.13B119,2013-02-25 03:48:00,
2013-02-24 19:53:00,48.3,32.4,30.23,North,0,0.0,0.0,54,0.00,,,0.00,0,WeatherCatV1.13B119,2013-02-25 03:53:00,
2013-02-24 19:58:00,48.0,32.2,30.23,North,0,0.0,0.0,54,0.00,,,0.00,0,WeatherCatV1.13B119,2013-02-25 03:58:00,
2013-02-24 20:03:00,47.6,32.2,30.23,North,0,0.0,0.0,55,0.00,,,0.00,0,WeatherCatV1.13B119,2013-02-25 04:03:00,
2013-02-24 20:08:00,47.3,32.4,30.23,North,0,0.0,0.0,56,0.00,,,0.00,0,WeatherCatV1.13B119,2013-02-25 04:08:00,
2013-02-24 20:13:00,47.0,32.1,30.23,North,5,0.0,0.0,56,0.00,,,0.00,0,WeatherCatV1.13B119,2013-02-25 04:13:00,
2013-02-24 20:18:00,46.7,32.3,30.23,North,5,0.0,0.0,57,0.00,,,0.00,0,WeatherCatV1.13B119,2013-02-25 04:18:00,
2013-02-24 20:23:00,46.4,32.0,30.23,North,0,0.0,0.0,57,0.00,,,0.00,0,WeatherCatV1.13B119,2013-02-25 04:23:00,
2013-02-24 20:28:00,46.1,32.2,30.23,North,5,0.0,0.0,58,0.00,,,0.00,0,WeatherCatV1.13B119,2013-02-25 04:28:00,
2013-02-24 20:33:00,45.9,32.0,30.24,North,5,0.0,0.0,58,0.00,,,0.00,0,WeatherCatV1.13B119,2013-02-25 04:33:00,
2013-02-24 20:38:00,45.6,32.1,30.24,North,5,0.0,0.0,59,0.00,,,0.00,0,WeatherCatV1.13B119,2013-02-25 04:38:00,
2013-02-24 20:43:00,45.4,31.9,30.24,North,5,0.0,0.0,59,0.00,,,0.00,0,WeatherCatV1.13B119,2013-02-25 04:43:00,
2013-02-24 20:48:00,45.2,31.7,30.24,North,0,0.0,0.0,59,0.00,,,0.00,0,WeatherCatV1.13B119,2013-02-25 04:48:00,
2013-02-24 20:53:00,45.0,31.5,30.24,North,5,0.0,0.0,59,0.00,,,0.00,0,WeatherCatV1.13B119,2013-02-25 04:53:00,
2013-02-24 20:58:00,44.9,31.5,30.24,North,5,0.0,0.0,59,0.00,,,0.00,0,WeatherCatV1.13B119,2013-02-25 04:58:00,
2013-02-24 21:00:00,44.9,31.5,30.24,North,5,0.0,0.0,59,0.00,,,0.00,0,WeatherCatV1.13B119,2013-02-25 05:00:00,
2013-02-24 21:05:00,44.5,31.5,30.24,North,0,0.0,0.0,60,0.00,,,0.00,0,WeatherCatV1.13B119,2013-02-25 05:05:00,
2013-02-24 21:10:00,44.2,31.6,30.24,North,5,0.0,0.0,61,0.00,,,0.00,0,WeatherCatV1.13B119,2013-02-25 05:10:00,
2013-02-24 21:15:00,44.0,31.4,30.24,North,5,0.0,0.0,61,0.00,,,0.00,0,WeatherCatV1.13B119,2013-02-25 05:15:00,
2013-02-24 21:20:00,43.7,31.5,30.25,North,5,0.0,0.0,62,0.00,,,0.00,0,WeatherCatV1.13B119,2013-02-25 05:20:00,
2013-02-24 21:25:00,43.5,31.4,30.25,North,5,0.0,0.0,62,0.00,,,0.00,0,WeatherCatV1.13B119,2013-02-25 05:25:00,
2013-02-24 21:30:00,43.3,31.6,30.25,North,0,0.0,0.0,63,0.00,,,0.00,0,WeatherCatV1.13B119,2013-02-25 05:30:00,
2013-02-24 21:34:00,43.1,31.4,30.25,North,5,0.0,0.0,63,0.00,,,0.00,0,WeatherCatV1.13B119,2013-02-25 05:34:00,
2013-02-24 21:39:00,42.9,31.2,30.25,North,5,0.0,0.0,63,0.00,,,0.00,0,WeatherCatV1.13B119,2013-02-25 05:39:00,
2013-02-24 21:44:00,42.8,31.5,30.25,North,5,0.0,0.0,64,0.00,,,0.00,0,WeatherCatV1.13B119,2013-02-25 05:44:00,
2013-02-24 21:49:00,42.6,31.3,30.26,North,0,0.0,0.0,64,0.00,,,0.00,0,WeatherCatV1.13B119,2013-02-25 05:49:00,
2013-02-24 21:54:00,42.4,31.1,30.26,North,5,0.0,0.0,64,0.00,,,0.00,0,WeatherCatV1.13B119,2013-02-25 05:54:00,
2013-02-24 21:59:00,42.2,30.9,30.26,North,5,0.0,0.0,64,0.00,,,0.00,0,WeatherCatV1.13B119,2013-02-25 05:59:00,
2013-02-24 22:04:00,42.0,31.1,30.26,North,5,0.0,0.0,65,0.00,,,0.00,0,WeatherCatV1.13B119,2013-02-25 06:04:00,
2013-02-24 22:09:00,41.8,30.9,30.26,North,5,0.0,0.0,65,0.00,,,0.00,0,WeatherCatV1.13B119,2013-02-25 06:09:00,
2013-02-24 22:14:00,41.7,30.8,30.26,North,0,0.0,0.0,65,0.00,,,0.00,0,WeatherCatV1.13B119,2013-02-25 06:14:00,
2013-02-24 22:19:00,41.5,30.6,30.26,North,5,0.0,0.0,65,0.00,,,0.00,0,WeatherCatV1.13B119,2013-02-25 06:19:00,
2013-02-24 22:24:00,41.3,30.8,30.26,North,5,0.0,0.0,66,0.00,,,0.00,0,WeatherCatV1.13B119,2013-02-25 06:24:00,
2013-02-24 22:29:00,41.1,30.6,30.26,North,5,0.0,0.0,66,0.00,,,0.00,0,WeatherCatV1.13B119,2013-02-25 06:29:00,
2013-02-24 22:34:00,41.0,30.9,30.26,North,5,0.0,0.0,67,0.00,,,0.00,0,WeatherCatV1.13B119,2013-02-25 06:34:00,
2013-02-24 22:39:00,40.9,30.8,30.26,North,0,0.0,0.0,67,0.00,,,0.00,0,WeatherCatV1.13B119,2013-02-25 06:39:00,
2013-02-24 22:44:00,40.7,30.6,30.26,North,0,0.0,0.0,67,0.00,,,0.00,0,WeatherCatV1.13B119,2013-02-25 06:44:00,
2013-02-24 22:49:00,40.6,30.9,30.26,North,0,0.0,0.0,68,0.00,,,0.00,0,WeatherCatV1.13B119,2013-02-25 06:49:00,
2013-02-24 22:54:00,40.4,30.7,30.26,North,5,0.0,0.0,68,0.00,,,0.00,0,WeatherCatV1.13B119,2013-02-25 06:54:00,
2013-02-24 22:59:00,40.2,30.9,30.26,North,5,0.0,0.0,69,0.00,,,0.00,0,WeatherCatV1.13B119,2013-02-25 06:59:00,
2013-02-24 23:04:00,40.1,30.8,30.26,North,5,0.0,0.0,69,0.00,,,0.00,0,WeatherCatV1.13B119,2013-02-25 07:04:00,
2013-02-24 23:09:00,40.0,30.7,30.27,North,0,0.0,0.0,69,0.00,,,0.00,0,WeatherCatV1.13B119,2013-02-25 07:09:00,
2013-02-24 23:14:00,39.8,30.5,30.26,North,5,0.0,0.0,69,0.00,,,0.00,0,WeatherCatV1.13B119,2013-02-25 07:14:00,
2013-02-24 23:19:00,39.7,30.7,30.26,North,5,0.0,0.0,70,0.00,,,0.00,0,WeatherCatV1.13B119,2013-02-25 07:19:00,
2013-02-24 23:24:00,39.6,30.6,30.26,North,5,0.0,0.0,70,0.00,,,0.00,0,WeatherCatV1.13B119,2013-02-25 07:24:00,
2013-02-24 23:29:00,39.5,30.5,30.26,North,5,0.0,0.0,70,0.00,,,0.00,0,WeatherCatV1.13B119,2013-02-25 07:29:00,
2013-02-24 23:34:00,39.3,30.3,30.26,North,5,0.0,0.0,70,0.00,,,0.00,0,WeatherCatV1.13B119,2013-02-25 07:34:00,
2013-02-24 23:39:00,39.2,30.3,30.26,North,5,0.0,0.0,70,0.00,,,0.00,0,WeatherCatV1.13B119,2013-02-25 07:39:00,
2013-02-24 23:44:00,39.1,30.2,30.27,North,5,0.0,0.0,70,0.00,,,0.00,0,WeatherCatV1.13B119,2013-02-25 07:44:00,
2013-02-24 23:49:00,39.0,30.1,30.27,North,5,0.0,0.0,70,0.00,,,0.00,0,WeatherCatV1.13B119,2013-02-25 07:49:00,
2013-02-24 23:54:00,38.9,30.0,30.27,North,5,0.0,0.0,70,0.00,,,0.00,0,WeatherCatV1.13B119,2013-02-25 07:54:00,
2013-02-24 23:59:00,38.7,29.8,30.27,North,0,0.0,0.0,70,0.00,,,0.00,0,WeatherCatV1.13B119,2013-02-25 07:59:00,